Regional Weather Roundup
Issued by NWS Newport/Morehead, NC

Current Version | Previous Version | Text Only | Print | Product List | Glossary On
Versions: 1 2 3 4 5 6 7 8 9 10 11 12 13 14 15 16 17 18 19 20 21 22 23 24 25 26 27 28 29 30 31 32 33 34 35 36 37 38 39 40 41 42 43 44 45 46 47 48 49 50
000 ASUS42 KMHX 240825 RWRMHX WEATHER ROUNDUP FOR EASTERN NORTH CAROLINA NATIONAL WEATHER SERVICE NEWPORT/MOREHEAD CITY NC 400 AM EDT TUE MAY 24 2016 NOTE: "FAIR" INDICATES FEW OR NO CLOUDS BELOW 12,000 FEET WITH NO SIGNIFICANT WEATHER AND/OR OBSTRUCTIONS TO VISIBILITY NCZ015>017-031-032-045>047-102-103-240900- NORTH COAST CITY SKY/WX TMP DP RH WIND PRES REMARKS EDENTON PTCLDY N/A N/A N/A W7 29.99S ELIZABETH CITY CLOUDY 56 52 86 W6 29.97S KITTY HAWK CLOUDY 62 55 78 W6 29.96R MANTEO PTCLDY 58 58 97 W6 29.98R $$ NCZ045>047-081-094-103-104-240900- CENTRAL COAST CITY SKY/WX TMP DP RH WIND PRES REMARKS FRISCO CLEAR 63 54 72 W9 29.99R $$ NCZ095-097-098-100-101-240900- SOUTHERN COAST CITY SKY/WX TMP DP RH WIND PRES REMARKS BEAUFORT CLEAR 57 53 86 NW8 30.02S CEDAR ISLAND NOT AVBL JACKSONVILLE CLEAR 54 52 93 W5 30.03S PINEY ISLAND SUNNY N/A N/A N/A SW7 30.01R WILMINGTON CLEAR 55 53 93 NW6 30.04S $$ NCZ011>013-027>030-043-044-078>080-089-090>093-098-240900- COASTAL PLAIN CITY SKY/WX TMP DP RH WIND PRES REMARKS AHOSKIE CLEAR 50 49 97 CALM 30.00S CLINTON CLEAR 51 51 100 CALM 30.05R ELIZABETHTOWN CLEAR 53 52 97 CALM 30.05R GOLDSBORO CLEAR 53 53 100 CALM 30.02R GREENVILLE CLEAR 52 52 100 CALM 30.04R HAVELOCK CLEAR 53 51 93 CALM 30.03S KENANSVILLE CLEAR 49 49 98 CALM 30.05S KINSTON CLEAR 53 52 95 SW3 30.03S NEW BERN CLEAR 53 50 89 SW3 30.04R RICHLANDS CLEAR 51 50 96 CALM 30.04S ROCKY MOUNT CLOUDY 54 51 90 S3 30.01S WASHINGTON CLEAR 52 50 95 SW3 30.02R WHITEVILLE CLEAR 53 51 94 CALM 30.05S $$ AMZ130-135-150-152-154-156-158-170-250-252-270-ANZ085-086-088-633-658-670-240900- MARINE OBSERVATIONS STATION/POSITION TIME TEMP WIND PRES WAVE SWELL AIR SEA DIR/SP/G HT/PER HT/PER (UTC) (F) (DEG/KT/KT) (MB) (FT/S) (FT/S) CHESAPEAKE LIGHT 0800 60 300/ 17/ 17 1014.9 64 E VA BEACH 0750 57 58 290/ 6/ 8 1013.7 6/10 5/10 DUCK 0800 61 62 300/ 7/ 11 1013.8 2 E DUCK 0711 62 N/A 4/ 9 2/11 OREGON INLET 0800 60 64 270/ 12/ 17 1014.5 13E OREGON INLT 0800 60 N/A 5/ 8 5/ 8 HATTERAS CG 0800 65 67 270/ 14/ 17 1014.9 DIAMOND BUOY 0750 64 68 270/ 14/ 17 1015.4 4/ 9 3/ 9 CAPE LOOKOUT 0800 63 280/ 9/ 10 1016.0 BEAUFORT LAB 0800 59 67 320/ 5/ 8 1015.7 30 SE NEW RVR IN 0725 73 N/A 2/ 8 27 SE WRIGHTSVLE 0808 66 72 320/ 8/ 12 1016.1 5 SE WRIGHTSVLE 0708 63 71 330/ 10/ 12 1017.7 225 S CAPE HAT 0750 73 77 260/ 12/ 14 1016.3 4/ 8 3/ 8 41 SE CHARLESTON 0750 71 75 360/ 8/ 10 1017.5 3/ 9 2/ 9 $$

USA.gov is the U.S. government's official web portal to all federal, state and local government web resources and services.